Orangeburg, SC

9:56 PM EST on December 11, 2017 (GMT -0500)
Orangeburg Municipal

Weather History for KOGB - October, 2012

Change the Weather History Date:

Sunday, October 21, 2012

  Actual Average Record
Temperature  
Mean Temperature 61 °F 63 °F  
Max Temperature 73 °F 75 °F 88 °F (1993)
Min Temperature 49 °F 52 °F 32 °F (1981)
Degree Days  
Heating Degree Days 4 4  
Month to date heating degree days 39 39  
Since 1 July heating degree days 39 43  
Cooling Degree Days 0 2  
Month to date cooling degree days 88 77  
Year to date cooling degree days 2297 2071  
Growing Degree Days 10 (Base 50)    
Moisture  
Dew Point 45 °F    
Average Humidity 61    
Maximum Humidity 89    
Minimum Humidity 35    
Precipitation  
Precipitation 0.00 in 0.09 in 0.93 in (1970)
Month to date precipitation 1.70 2.64  
Year to date precipitation 36.73 39.74  
Sea Level Pressure  
Sea Level Pressure 30.09 in    
Wind  
Wind Speed 4 mph (NE)    
Max Wind Speed 13 mph    
Max Gust Speed 17 mph    
Visibility 10 miles    
Events      
T = Trace of Precipitation, MM = Missing Value Source: NWS Daily Summary

Daily Weather History Graph

Daily Weather History Graph

Search for Another Location

Airport or City:

Trip Planner

Search our weather history database for the weather conditions in past years. The results will help you decide how hot, cold, wet, or windy it might be!

Date:

Astronomy

Oct. 21, 2012 Rise Set
Actual Time 7:33 AM EDT 6:42 PM EDT
Civil Twilight 7:07 AM EDT 7:07 PM EDT
Nautical Twilight 6:38 AM EDT 7:36 PM EDT
Astronomical Twilight 6:10 AM EDT 8:05 PM EDT
Moon 1:47 PM EDT (10/21) No Moon Set
Length of Visible Light 11h 59m
Length of Day
11h 09m
Waxing Crescent, 45% of the Moon is Illuminated
Oct 21
Waxing Crescent
Oct 21
First Quarter
Oct 29
Full
Nov 6
Last Quarter
Nov 13
New

Hourly Weather History & Observations

Time (EDT) Temp. Dew Point Humidity Pressure Visibility Wind Dir Wind Speed Gust Speed Precip Events Conditions
12:53 AM 52.0 °F 48.0 °F 86% 29.96 in 10.0 mi Calm Calm - N/A   Clear
1:53 AM 55.9 °F 46.0 °F 69% 29.98 in 10.0 mi NNW 4.6 mph - N/A   Clear
2:53 AM 55.9 °F 44.1 °F 64% 29.99 in 10.0 mi NE 5.8 mph - N/A   Clear
3:53 AM 55.9 °F 43.0 °F 62% 29.99 in 10.0 mi NE 5.8 mph - N/A   Clear
4:53 AM 54.0 °F 43.0 °F 66% 30.01 in 10.0 mi ENE 5.8 mph - N/A   Clear
5:53 AM 53.1 °F 43.0 °F 69% 30.04 in 10.0 mi NE 3.5 mph - N/A   Clear
6:53 AM 51.1 °F 43.0 °F 74% 30.07 in 10.0 mi NE 3.5 mph - N/A   Clear
7:53 AM 48.9 °F 43.0 °F 80% 30.09 in 10.0 mi Calm Calm - N/A   Clear
8:53 AM 55.0 °F 44.1 °F 67% 30.11 in 10.0 mi NE 5.8 mph - N/A   Clear
9:53 AM 59.0 °F 42.1 °F 53% 30.13 in 10.0 mi ENE 9.2 mph - N/A   Clear
10:53 AM 63.0 °F 42.1 °F 46% 30.14 in 10.0 mi ENE 11.5 mph - N/A   Clear
11:53 AM 66.9 °F 41.0 °F 39% 30.14 in 10.0 mi NE 9.2 mph - N/A   Clear
12:53 PM 69.1 °F 41.0 °F 36% 30.14 in 10.0 mi NE 8.1 mph - N/A   Clear
1:53 PM 69.1 °F 41.0 °F 36% 30.11 in 10.0 mi Variable 3.5 mph - N/A   Clear
2:53 PM 72.0 °F 43.0 °F 35% 30.10 in 10.0 mi NE 5.8 mph - N/A   Clear
3:53 PM 71.1 °F 43.0 °F 36% 30.09 in 10.0 mi East 4.6 mph - N/A   Clear
4:53 PM 72.0 °F 44.1 °F 37% 30.09 in 10.0 mi Calm Calm - N/A   Clear
5:53 PM 72.0 °F 43.0 °F 35% 30.10 in 10.0 mi NNW 3.5 mph - N/A   Clear
6:53 PM 63.0 °F 48.0 °F 58% 30.12 in 10.0 mi Calm Calm - N/A   Clear
7:53 PM 57.9 °F 50.0 °F 75% 30.13 in 10.0 mi Calm Calm - N/A   Clear
8:53 PM 54.0 °F 48.9 °F 83% 30.13 in 10.0 mi Calm Calm - N/A   Clear
9:53 PM 53.1 °F 48.9 °F 86% 30.14 in 10.0 mi Calm Calm - N/A   Clear
10:53 PM 52.0 °F 48.9 °F 89% 30.15 in 10.0 mi Calm Calm - N/A   Clear
11:53 PM 51.1 °F 48.0 °F 89% 30.16 in 10.0 mi Calm Calm - N/A   Clear